Time,TemperatureF,DewpointF,PressureIn,WindDirection,WindDirectionDegrees,WindSpeedMPH,WindSpeedGustMPH,Humidity,HourlyPrecipIn,Conditions,Clouds,dailyrainin,SoftwareType,DateUTC
2013-11-25 00:04:00,34.8,25.7,30.16,NE,36,1.0,4.0,69,0.00,,---,0.00,VWS V14.00,2013-11-25 07:04:00,
2013-11-25 00:09:00,35.3,24.7,30.16,North,355,5.0,7.0,65,0.00,,---,0.00,VWS V14.00,2013-11-25 07:09:00,
2013-11-25 00:14:00,35.6,24.3,30.15,North,5,3.0,5.0,63,0.00,,---,0.00,VWS V14.00,2013-11-25 07:14:00,
2013-11-25 00:19:00,35.9,23.8,30.15,NNE,27,2.0,4.0,61,0.00,,---,0.00,VWS V14.00,2013-11-25 07:19:00,
2013-11-25 00:24:00,36.1,22.8,30.16,NNW,342,4.0,8.0,58,0.00,,---,0.00,VWS V14.00,2013-11-25 07:24:00,
2013-11-25 00:29:00,36.4,22.2,30.16,NW,313,3.0,7.0,56,0.00,,---,0.00,VWS V14.00,2013-11-25 07:29:00,
2013-11-25 00:34:00,36.7,21.6,30.16,NNE,20,1.0,7.0,54,0.00,,---,0.00,VWS V14.00,2013-11-25 07:34:00,
2013-11-25 00:39:00,37.0,21.0,30.16,NNE,31,2.0,3.0,52,0.00,,---,0.00,VWS V14.00,2013-11-25 07:39:00,
2013-11-25 00:44:00,37.2,20.3,30.16,NE,37,0.0,5.0,50,0.00,,---,0.00,VWS V14.00,2013-11-25 07:44:00,
2013-11-25 00:49:00,37.5,20.1,30.15,NNW,346,9.0,9.0,49,0.00,,---,0.00,VWS V14.00,2013-11-25 07:49:00,
2013-11-25 00:54:00,37.8,19.4,30.15,NNE,15,3.0,4.0,47,0.00,,---,0.00,VWS V14.00,2013-11-25 07:54:00,
2013-11-25 00:59:00,37.9,19.5,30.16,NNW,335,7.0,7.0,47,0.00,,---,0.00,VWS V14.00,2013-11-25 07:59:00,
2013-11-25 01:04:00,38.2,20.2,30.16,NNE,19,1.0,9.0,48,0.00,,---,0.00,VWS V14.00,2013-11-25 08:04:00,
2013-11-25 01:09:00,38.3,19.4,30.16,North,10,2.0,6.0,46,0.00,,---,0.00,VWS V14.00,2013-11-25 08:09:00,
2013-11-25 01:14:00,38.4,18.9,30.16,North,360,3.0,6.0,45,0.00,,---,0.00,VWS V14.00,2013-11-25 08:14:00,
2013-11-25 01:19:00,38.5,19.0,30.15,North,355,5.0,5.0,45,0.00,,---,0.00,VWS V14.00,2013-11-25 08:19:00,
2013-11-25 01:24:00,38.5,19.0,30.16,NE,37,1.0,4.0,45,0.00,,---,0.00,VWS V14.00,2013-11-25 08:24:00,
2013-11-25 01:29:00,38.5,19.0,30.16,NE,38,2.0,7.0,45,0.00,,---,0.00,VWS V14.00,2013-11-25 08:29:00,
2013-11-25 01:34:00,38.5,19.0,30.16,NNE,23,0.0,3.0,45,0.00,,---,0.00,VWS V14.00,2013-11-25 08:34:00,
2013-11-25 01:39:00,38.4,18.9,30.18,North,5,3.0,5.0,45,0.00,,---,0.00,VWS V14.00,2013-11-25 08:39:00,
2013-11-25 01:44:00,38.4,18.9,30.18,NNE,22,0.0,1.0,45,0.00,,---,0.00,VWS V14.00,2013-11-25 08:44:00,
2013-11-25 01:49:00,38.4,18.9,30.18,NE,36,0.0,3.0,45,0.00,,---,0.00,VWS V14.00,2013-11-25 08:49:00,
2013-11-25 01:54:00,38.4,18.9,30.19,NNE,32,0.0,2.0,45,0.00,,---,0.00,VWS V14.00,2013-11-25 08:54:00,
2013-11-25 01:59:00,38.3,19.4,30.19,NNE,26,2.0,3.0,46,0.00,,---,0.00,VWS V14.00,2013-11-25 08:59:00,
2013-11-25 02:04:00,38.3,19.4,30.19,NNE,26,0.0,0.0,46,0.00,,---,0.00,VWS V14.00,2013-11-25 09:04:00,
2013-11-25 02:09:00,38.2,19.3,30.19,NNE,26,1.0,1.0,46,0.00,,---,0.00,VWS V14.00,2013-11-25 09:09:00,
2013-11-25 02:14:00,38.1,20.6,30.20,NNW,343,0.0,3.0,49,0.00,,---,0.00,VWS V14.00,2013-11-25 09:14:00,
2013-11-25 02:19:00,38.0,19.1,30.20,NE,36,1.0,2.0,46,0.00,,---,0.00,VWS V14.00,2013-11-25 09:19:00,
2013-11-25 02:24:00,38.0,19.1,30.20,NE,34,0.0,2.0,46,0.00,,---,0.00,VWS V14.00,2013-11-25 09:24:00,
2013-11-25 02:29:00,38.0,19.1,30.20,NE,34,0.0,3.0,46,0.00,,---,0.00,VWS V14.00,2013-11-25 09:29:00,
2013-11-25 02:34:00,37.9,19.5,30.20,NE,34,0.0,0.0,47,0.00,,---,0.00,VWS V14.00,2013-11-25 09:34:00,
2013-11-25 02:39:00,37.9,19.5,30.20,NE,34,0.0,0.0,47,0.00,,---,0.00,VWS V14.00,2013-11-25 09:39:00,
2013-11-25 02:44:00,37.8,19.4,30.20,NE,34,0.0,0.0,47,0.00,,---,0.00,VWS V14.00,2013-11-25 09:44:00,
2013-11-25 02:49:00,37.7,19.3,30.20,NE,34,0.0,0.0,47,0.00,,---,0.00,VWS V14.00,2013-11-25 09:49:00,
2013-11-25 02:54:00,37.7,19.3,30.21,NNE,32,0.0,0.0,47,0.00,,---,0.00,VWS V14.00,2013-11-25 09:54:00,
2013-11-25 02:59:00,37.7,19.8,30.21,NNE,30,0.0,1.0,48,0.00,,---,0.00,VWS V14.00,2013-11-25 09:59:00,
2013-11-25 03:04:00,37.7,19.8,30.22,NE,51,0.0,4.0,48,0.00,,---,0.00,VWS V14.00,2013-11-25 10:04:00,
2013-11-25 03:09:00,37.7,19.8,30.22,NNE,26,2.0,2.0,48,0.00,,---,0.00,VWS V14.00,2013-11-25 10:09:00,
2013-11-25 03:14:00,37.7,19.8,30.22,NE,34,0.0,3.0,48,0.00,,---,0.00,VWS V14.00,2013-11-25 10:14:00,
2013-11-25 03:19:00,37.7,19.8,30.22,NNE,23,3.0,6.0,48,0.00,,---,0.00,VWS V14.00,2013-11-25 10:19:00,
2013-11-25 03:25:00,37.9,20.0,30.22,East,98,0.0,3.0,48,0.00,,---,0.00,VWS V14.00,2013-11-25 10:25:00,
2013-11-25 03:30:00,38.0,20.1,30.22,SSE,156,0.0,0.0,48,0.00,,---,0.00,VWS V14.00,2013-11-25 10:30:00,
2013-11-25 03:36:00,37.9,20.0,30.22,NE,53,3.0,3.0,48,0.00,,---,0.00,VWS V14.00,2013-11-25 10:36:00,
2013-11-25 03:41:00,37.9,20.0,30.22,NNE,26,0.0,2.0,48,0.00,,---,0.00,VWS V14.00,2013-11-25 10:41:00,
2013-11-25 03:46:00,37.8,19.9,30.22,NE,46,1.0,5.0,48,0.00,,---,0.00,VWS V14.00,2013-11-25 10:46:00,
2013-11-25 03:52:00,37.7,20.3,30.22,East,86,0.0,1.0,49,0.00,,---,0.00,VWS V14.00,2013-11-25 10:52:00,
2013-11-25 03:58:00,37.7,19.8,30.22,NE,44,0.0,2.0,48,0.00,,---,0.00,VWS V14.00,2013-11-25 10:58:00,
2013-11-25 04:04:00,37.7,19.8,30.22,NNE,32,0.0,2.0,48,0.00,,---,0.00,VWS V14.00,2013-11-25 11:04:00,
2013-11-25 04:09:00,37.7,19.8,30.23,NNE,26,0.0,0.0,48,0.00,,---,0.00,VWS V14.00,2013-11-25 11:09:00,
2013-11-25 04:14:00,37.6,19.7,30.23,ESE,117,0.0,3.0,48,0.00,,---,0.00,VWS V14.00,2013-11-25 11:14:00,
2013-11-25 04:20:00,37.3,19.4,30.23,ENE,59,3.0,3.0,48,0.00,,---,0.00,VWS V14.00,2013-11-25 11:20:00,
2013-11-25 04:25:00,37.1,19.2,30.23,NNE,27,0.0,2.0,48,0.00,,---,0.00,VWS V14.00,2013-11-25 11:25:00,
2013-11-25 04:30:00,36.8,19.0,30.23,NNE,22,0.0,2.0,48,0.00,,---,0.00,VWS V14.00,2013-11-25 11:30:00,
2013-11-25 04:36:00,36.5,18.7,30.24,ENE,58,0.0,6.0,48,0.00,,---,0.00,VWS V14.00,2013-11-25 11:36:00,
2013-11-25 04:41:00,36.2,18.9,30.25,NNW,331,5.0,6.0,49,0.00,,---,0.00,VWS V14.00,2013-11-25 11:41:00,
2013-11-25 04:46:00,36.0,18.7,30.25,NE,46,0.0,0.0,49,0.00,,---,0.00,VWS V14.00,2013-11-25 11:46:00,
2013-11-25 04:51:00,35.7,18.4,30.25,ESE,119,0.0,4.0,49,0.00,,---,0.00,VWS V14.00,2013-11-25 11:51:00,
2013-11-25 04:56:00,35.5,18.2,30.26,ESE,114,0.0,2.0,49,0.00,,---,0.00,VWS V14.00,2013-11-25 11:56:00,
2013-11-25 05:01:00,35.2,18.4,30.27,ESE,113,0.0,1.0,50,0.00,,---,0.00,VWS V14.00,2013-11-25 12:01:00,
2013-11-25 05:07:00,35.0,18.2,30.28,NE,53,2.0,4.0,50,0.00,,---,0.00,VWS V14.00,2013-11-25 12:07:00,
2013-11-25 05:12:00,34.8,18.1,30.28,ENE,73,0.0,1.0,50,0.00,,---,0.00,VWS V14.00,2013-11-25 12:12:00,
2013-11-25 05:17:00,34.7,18.4,30.28,East,101,1.0,2.0,51,0.00,,---,0.00,VWS V14.00,2013-11-25 12:17:00,
2013-11-25 05:23:00,34.6,18.3,30.29,North,11,1.0,4.0,51,0.00,,---,0.00,VWS V14.00,2013-11-25 12:23:00,
2013-11-25 05:29:00,34.6,18.3,30.30,North,360,0.0,4.0,51,0.00,,---,0.00,VWS V14.00,2013-11-25 12:29:00,
2013-11-25 05:34:00,34.5,18.7,30.30,NNE,30,0.0,2.0,52,0.00,,---,0.00,VWS V14.00,2013-11-25 12:34:00,
2013-11-25 05:39:00,34.4,18.6,30.31,NNE,30,2.0,2.0,52,0.00,,---,0.00,VWS V14.00,2013-11-25 12:39:00,
2013-11-25 05:44:00,34.4,19.0,30.31,NNE,29,2.0,3.0,53,0.00,,---,0.00,VWS V14.00,2013-11-25 12:44:00,
2013-11-25 05:49:00,34.4,19.5,30.31,NNE,30,0.0,2.0,54,0.00,,---,0.00,VWS V14.00,2013-11-25 12:49:00,
2013-11-25 05:54:00,34.1,19.2,30.32,NNE,16,0.0,3.0,54,0.00,,---,0.00,VWS V14.00,2013-11-25 12:54:00,
2013-11-25 05:59:00,33.9,19.0,30.32,NNE,16,0.0,2.0,54,0.00,,---,0.00,VWS V14.00,2013-11-25 12:59:00,
2013-11-25 06:04:00,33.8,21.0,30.32,North,360,3.0,4.0,59,0.00,,---,0.00,VWS V14.00,2013-11-25 13:04:00,
2013-11-25 06:09:00,33.6,19.2,30.32,North,5,0.0,1.0,55,0.00,,---,0.00,VWS V14.00,2013-11-25 13:09:00,
2013-11-25 06:14:00,33.5,19.5,30.32,North,5,3.0,3.0,56,0.00,,---,0.00,VWS V14.00,2013-11-25 13:14:00,
2013-11-25 06:19:00,33.5,19.5,30.33,North,360,3.0,4.0,56,0.00,,---,0.00,VWS V14.00,2013-11-25 13:19:00,
2013-11-25 06:24:00,33.4,19.4,30.34,NE,49,2.0,3.0,56,0.00,,---,0.00,VWS V14.00,2013-11-25 13:24:00,
2013-11-25 06:29:00,33.3,19.3,30.35,NE,46,2.0,3.0,56,0.00,,---,0.00,VWS V14.00,2013-11-25 13:29:00,
2013-11-25 06:34:00,33.4,19.4,30.35,NW,326,6.0,6.0,56,0.00,,---,0.00,VWS V14.00,2013-11-25 13:34:00,
2013-11-25 06:39:00,33.4,19.8,30.35,North,360,3.0,5.0,57,0.00,,---,0.00,VWS V14.00,2013-11-25 13:39:00,
2013-11-25 06:44:00,33.4,19.8,30.36,NNE,25,3.0,4.0,57,0.00,,---,0.00,VWS V14.00,2013-11-25 13:44:00,
2013-11-25 06:49:00,33.5,19.9,30.35,North,355,0.0,0.0,57,0.00,,---,0.00,VWS V14.00,2013-11-25 13:49:00,
2013-11-25 06:54:00,33.6,20.0,30.35,North,350,3.0,3.0,57,0.00,,---,0.00,VWS V14.00,2013-11-25 13:54:00,
2013-11-25 06:59:00,33.7,20.1,30.35,NW,325,0.0,3.0,57,0.00,,---,0.00,VWS V14.00,2013-11-25 13:59:00,
2013-11-25 07:04:00,33.8,20.2,30.36,NNE,24,0.0,4.0,57,0.00,,---,0.00,VWS V14.00,2013-11-25 14:04:00,
2013-11-25 07:09:00,34.0,20.4,30.36,NNE,33,0.0,4.0,57,0.00,,---,0.00,VWS V14.00,2013-11-25 14:09:00,
2013-11-25 07:14:00,34.1,20.9,30.36,North,5,0.0,3.0,58,0.00,,---,0.00,VWS V14.00,2013-11-25 14:14:00,
2013-11-25 07:19:00,34.2,21.0,30.37,North,360,3.0,6.0,58,0.00,,---,0.00,VWS V14.00,2013-11-25 14:19:00,
2013-11-25 07:24:00,34.4,20.8,30.37,North,10,0.0,3.0,57,0.00,,---,0.00,VWS V14.00,2013-11-25 14:24:00,
2013-11-25 07:29:00,34.4,20.8,30.37,North,9,1.0,6.0,57,0.00,,---,0.00,VWS V14.00,2013-11-25 14:29:00,
2013-11-25 07:34:00,34.4,20.8,30.38,NNE,28,2.0,4.0,57,0.00,,---,0.00,VWS V14.00,2013-11-25 14:34:00,
2013-11-25 07:39:00,34.4,20.8,30.38,North,10,0.0,0.0,57,0.00,,---,0.00,VWS V14.00,2013-11-25 14:39:00,
2013-11-25 07:44:00,34.5,21.3,30.38,NW,323,0.0,6.0,58,0.00,,---,0.00,VWS V14.00,2013-11-25 14:44:00,
2013-11-25 07:49:00,34.6,21.4,30.39,NNW,344,0.0,2.0,58,0.00,,---,0.00,VWS V14.00,2013-11-25 14:49:00,
2013-11-25 07:54:00,34.6,21.4,30.39,North,355,3.0,5.0,58,0.00,,---,0.00,VWS V14.00,2013-11-25 14:54:00,
2013-11-25 07:59:00,34.7,21.5,30.39,NNE,32,0.0,5.0,58,0.00,,---,0.00,VWS V14.00,2013-11-25 14:59:00,
2013-11-25 08:04:00,34.7,21.9,30.38,North,360,3.0,5.0,59,0.00,,---,0.00,VWS V14.00,2013-11-25 15:04:00,
2013-11-25 08:09:00,34.7,21.9,30.39,North,9,0.0,3.0,59,0.00,,---,0.00,VWS V14.00,2013-11-25 15:09:00,
2013-11-25 08:14:00,34.8,22.0,30.39,WNW,296,1.0,4.0,59,0.00,,---,0.00,VWS V14.00,2013-11-25 15:14:00,
2013-11-25 08:19:00,34.9,22.4,30.39,NNE,22,1.0,6.0,60,0.00,,---,0.00,VWS V14.00,2013-11-25 15:19:00,
2013-11-25 08:24:00,34.9,22.4,30.40,NW,308,1.0,4.0,60,0.00,,---,0.00,VWS V14.00,2013-11-25 15:24:00,
2013-11-25 08:29:00,35.0,22.9,30.40,NW,313,0.0,1.0,61,0.00,,---,0.00,VWS V14.00,2013-11-25 15:29:00,
2013-11-25 08:34:00,35.0,22.9,30.40,NNE,28,1.0,6.0,61,0.00,,---,0.00,VWS V14.00,2013-11-25 15:34:00,
2013-11-25 08:39:00,35.0,22.9,30.41,NNW,343,2.0,2.0,61,0.00,,---,0.00,VWS V14.00,2013-11-25 15:39:00,
2013-11-25 08:44:00,35.0,22.9,30.41,NE,48,0.0,6.0,61,0.00,,---,0.00,VWS V14.00,2013-11-25 15:44:00,
2013-11-25 08:49:00,35.1,23.0,30.41,NE,44,0.0,3.0,61,0.00,,---,0.00,VWS V14.00,2013-11-25 15:49:00,
2013-11-25 08:54:00,35.2,23.5,30.42,North,5,0.0,3.0,62,0.00,,---,0.00,VWS V14.00,2013-11-25 15:54:00,
2013-11-25 08:59:00,35.2,23.9,30.42,North,11,0.0,0.0,63,0.00,,---,0.00,VWS V14.00,2013-11-25 15:59:00,
2013-11-25 09:04:00,35.2,24.3,30.42,NNE,14,4.0,5.0,64,0.00,,---,0.00,VWS V14.00,2013-11-25 16:04:00,
2013-11-25 09:09:00,35.1,24.5,30.42,NNE,19,3.0,3.0,65,0.00,,---,0.00,VWS V14.00,2013-11-25 16:09:00,
2013-11-25 09:14:00,35.1,24.5,30.42,NE,39,0.0,2.0,65,0.00,,---,0.00,VWS V14.00,2013-11-25 16:14:00,
2013-11-25 09:19:00,35.2,25.0,30.42,NE,38,0.0,3.0,66,0.00,,---,0.00,VWS V14.00,2013-11-25 16:19:00,
2013-11-25 09:24:00,35.2,25.4,30.42,ESE,121,3.0,5.0,67,0.00,,---,0.00,VWS V14.00,2013-11-25 16:24:00,
2013-11-25 09:29:00,35.1,25.6,30.42,ESE,117,1.0,2.0,68,0.00,,---,0.00,VWS V14.00,2013-11-25 16:29:00,
2013-11-25 09:34:00,34.9,25.4,30.42,ESE,117,0.0,2.0,68,0.00,,---,0.00,VWS V14.00,2013-11-25 16:34:00,
2013-11-25 09:39:00,34.7,25.6,30.42,ESE,113,0.0,5.0,69,0.00,,---,0.00,VWS V14.00,2013-11-25 16:39:00,
2013-11-25 09:44:00,34.4,25.6,30.42,ESE,113,1.0,1.0,70,0.00,,---,0.00,VWS V14.00,2013-11-25 16:44:00,
2013-11-25 09:49:00,34.4,26.0,30.44,ESE,113,0.0,1.0,71,0.00,,---,0.00,VWS V14.00,2013-11-25 16:49:00,
2013-11-25 09:54:00,34.4,26.3,30.43,ESE,113,1.0,1.0,72,0.00,,---,0.00,VWS V14.00,2013-11-25 16:54:00,
2013-11-25 09:59:00,34.4,26.7,30.43,ESE,112,0.0,0.0,73,0.00,,---,0.00,VWS V14.00,2013-11-25 16:59:00,
2013-11-25 10:04:00,34.4,26.7,30.44,ESE,111,0.0,0.0,73,0.00,,---,0.00,VWS V14.00,2013-11-25 17:04:00,
2013-11-25 10:09:00,34.4,27.0,30.44,ESE,111,0.0,0.0,74,0.00,,---,0.00,VWS V14.00,2013-11-25 17:09:00,
2013-11-25 10:14:00,34.4,27.0,30.44,ESE,111,4.0,4.0,74,0.00,,---,0.00,VWS V14.00,2013-11-25 17:14:00,
2013-11-25 10:19:00,34.4,27.3,30.44,ESE,110,0.0,0.0,75,0.00,,---,0.00,VWS V14.00,2013-11-25 17:19:00,
2013-11-25 10:24:00,34.3,27.5,30.44,ESE,110,0.0,4.0,76,0.00,,---,0.00,VWS V14.00,2013-11-25 17:24:00,
2013-11-25 10:29:00,34.2,27.4,30.44,ESE,111,0.0,3.0,76,0.00,,---,0.00,VWS V14.00,2013-11-25 17:29:00,
2013-11-25 10:34:00,34.0,27.6,30.44,ESE,111,0.0,2.0,77,0.00,,---,0.00,VWS V14.00,2013-11-25 17:34:00,
2013-11-25 10:39:00,34.1,27.7,30.44,ESE,110,3.0,4.0,77,0.00,,---,0.00,VWS V14.00,2013-11-25 17:39:00,
2013-11-25 10:44:00,34.2,28.1,30.44,ESE,111,0.0,1.0,78,0.00,,---,0.00,VWS V14.00,2013-11-25 17:44:00,
2013-11-25 10:49:00,34.3,28.2,30.43,ESE,109,0.0,0.0,78,0.00,,---,0.00,VWS V14.00,2013-11-25 17:49:00,
2013-11-25 10:54:00,34.4,28.3,30.43,ESE,109,0.0,1.0,78,0.00,,---,0.00,VWS V14.00,2013-11-25 17:54:00,
2013-11-25 10:59:00,34.5,28.4,30.43,ESE,109,0.0,1.0,78,0.00,,---,0.00,VWS V14.00,2013-11-25 17:59:00,
2013-11-25 11:04:00,34.7,28.2,30.42,ESE,118,0.0,3.0,77,0.00,,---,0.00,VWS V14.00,2013-11-25 18:04:00,
2013-11-25 11:09:00,34.7,27.6,30.42,ENE,75,0.0,1.0,75,0.00,,---,0.00,VWS V14.00,2013-11-25 18:09:00,
2013-11-25 11:14:00,34.9,27.8,30.42,East,97,0.0,1.0,75,0.00,,---,0.00,VWS V14.00,2013-11-25 18:14:00,
2013-11-25 11:19:00,35.1,27.7,30.42,ESE,113,1.0,1.0,74,0.00,,---,0.00,VWS V14.00,2013-11-25 18:19:00,
2013-11-25 11:24:00,35.3,26.9,30.42,ESE,122,0.0,0.0,71,0.00,,---,0.00,VWS V14.00,2013-11-25 18:24:00,
2013-11-25 11:29:00,35.5,27.0,30.41,ESE,122,0.0,0.0,71,0.00,,---,0.00,VWS V14.00,2013-11-25 18:29:00,
2013-11-25 11:34:00,35.8,27.0,30.41,ESE,122,0.0,0.0,70,0.00,,---,0.00,VWS V14.00,2013-11-25 18:34:00,
2013-11-25 11:39:00,36.1,27.3,30.41,ESE,122,0.0,0.0,70,0.00,,---,0.00,VWS V14.00,2013-11-25 18:39:00,
2013-11-25 11:44:00,36.2,27.0,30.40,ESE,122,0.0,0.0,69,0.00,,---,0.00,VWS V14.00,2013-11-25 18:44:00,
2013-11-25 11:49:00,36.2,26.7,30.40,SE,125,3.0,3.0,68,0.00,,---,0.00,VWS V14.00,2013-11-25 18:49:00,
2013-11-25 11:54:00,36.5,27.3,30.40,SE,125,0.0,0.0,69,0.00,,---,0.00,VWS V14.00,2013-11-25 18:54:00,
2013-11-25 11:59:00,36.8,27.2,30.40,SE,125,0.0,2.0,68,0.00,,---,0.00,VWS V14.00,2013-11-25 18:59:00,
2013-11-25 12:04:00,37.0,27.4,30.37,SE,128,0.0,1.0,68,0.00,,---,0.00,VWS V14.00,2013-11-25 19:04:00,
2013-11-25 12:09:00,37.3,27.7,30.37,SE,128,1.0,1.0,68,0.00,,---,0.00,VWS V14.00,2013-11-25 19:09:00,
2013-11-25 12:14:00,37.3,27.4,30.37,SE,128,0.0,0.0,67,0.00,,---,0.00,VWS V14.00,2013-11-25 19:14:00,
2013-11-25 12:19:00,37.5,27.5,30.36,SE,131,0.0,1.0,67,0.00,,---,0.00,VWS V14.00,2013-11-25 19:19:00,
2013-11-25 12:24:00,37.5,27.9,30.36,SE,125,0.0,0.0,68,0.00,,---,0.00,VWS V14.00,2013-11-25 19:24:00,
2013-11-25 12:29:00,37.4,27.5,30.37,SE,125,0.0,0.0,67,0.00,,---,0.00,VWS V14.00,2013-11-25 19:29:00,
2013-11-25 12:34:00,37.6,27.6,30.35,SE,125,0.0,2.0,67,0.00,,---,0.00,VWS V14.00,2013-11-25 19:34:00,
2013-11-25 12:39:00,38.0,28.0,30.35,SE,125,0.0,0.0,67,0.00,,---,0.00,VWS V14.00,2013-11-25 19:39:00,
2013-11-25 12:44:00,38.2,27.9,30.35,SE,125,0.0,0.0,66,0.00,,---,0.00,VWS V14.00,2013-11-25 19:44:00,
2013-11-25 12:49:00,38.1,27.8,30.35,SE,125,0.0,0.0,66,0.00,,---,0.00,VWS V14.00,2013-11-25 19:49:00,
2013-11-25 12:54:00,37.9,27.6,30.35,SE,125,0.0,0.0,66,0.00,,---,0.00,VWS V14.00,2013-11-25 19:54:00,
2013-11-25 12:59:00,38.1,27.8,30.34,SE,125,0.0,0.0,66,0.00,,---,0.00,VWS V14.00,2013-11-25 19:59:00,
2013-11-25 13:04:00,38.5,28.1,30.34,SE,125,0.0,2.0,66,0.00,,---,0.00,VWS V14.00,2013-11-25 20:04:00,
2013-11-25 13:09:00,38.5,27.8,30.34,ESE,123,0.0,0.0,65,0.00,,---,0.00,VWS V14.00,2013-11-25 20:09:00,
2013-11-25 13:14:00,38.6,27.9,30.34,SE,124,0.0,0.0,65,0.00,,---,0.00,VWS V14.00,2013-11-25 20:14:00,
2013-11-25 13:19:00,38.3,27.6,30.34,SE,139,0.0,0.0,65,0.00,,---,0.00,VWS V14.00,2013-11-25 20:19:00,
2013-11-25 13:24:00,38.2,27.9,30.33,SE,139,0.0,0.0,66,0.00,,---,0.00,VWS V14.00,2013-11-25 20:24:00,
2013-11-25 13:29:00,38.5,28.1,30.33,SE,138,1.0,1.0,66,0.00,,---,0.00,VWS V14.00,2013-11-25 20:29:00,
2013-11-25 13:34:00,38.4,28.0,30.33,SE,135,0.0,1.0,66,0.00,,---,0.00,VWS V14.00,2013-11-25 20:34:00,
2013-11-25 13:40:00,38.4,28.0,30.33,SSE,156,0.0,0.0,66,0.00,,---,0.00,VWS V14.00,2013-11-25 20:40:00,
2013-11-25 13:45:00,38.4,27.7,30.33,SE,139,0.0,1.0,65,0.00,,---,0.00,VWS V14.00,2013-11-25 20:45:00,
2013-11-25 13:50:00,38.7,28.0,30.33,SE,140,0.0,0.0,65,0.00,,---,0.00,VWS V14.00,2013-11-25 20:50:00,
2013-11-25 13:56:00,38.6,27.5,30.33,SE,142,0.0,1.0,64,0.00,,---,0.00,VWS V14.00,2013-11-25 20:56:00,
2013-11-25 14:01:00,38.7,28.0,30.33,ESE,114,0.0,2.0,65,0.00,,---,0.00,VWS V14.00,2013-11-25 21:01:00,
2013-11-25 14:07:00,38.6,27.9,30.32,SSE,150,0.0,1.0,65,0.00,,---,0.00,VWS V14.00,2013-11-25 21:07:00,
2013-11-25 14:12:00,38.6,27.9,30.32,SSW,194,0.0,1.0,65,0.00,,---,0.00,VWS V14.00,2013-11-25 21:12:00,
2013-11-25 14:17:00,38.6,28.2,30.33,South,186,0.0,2.0,66,0.00,,---,0.00,VWS V14.00,2013-11-25 21:17:00,
2013-11-25 14:22:00,39.1,28.3,30.33,South,186,0.0,3.0,65,0.00,,---,0.00,VWS V14.00,2013-11-25 21:22:00,
2013-11-25 14:28:00,39.0,27.9,30.32,SSE,159,0.0,2.0,64,0.00,,---,0.00,VWS V14.00,2013-11-25 21:28:00,
2013-11-25 14:34:00,39.0,27.9,30.32,SE,132,0.0,5.0,64,0.00,,---,0.00,VWS V14.00,2013-11-25 21:34:00,
2013-11-25 14:39:00,39.9,29.1,30.31,SE,133,0.0,1.0,65,0.00,,---,0.00,VWS V14.00,2013-11-25 21:39:00,
2013-11-25 14:44:00,40.7,29.1,30.31,East,86,0.0,2.0,63,0.00,,---,0.00,VWS V14.00,2013-11-25 21:44:00,
2013-11-25 14:49:00,40.5,28.9,30.31,East,97,0.0,1.0,63,0.00,,---,0.00,VWS V14.00,2013-11-25 21:49:00,
2013-11-25 14:54:00,40.4,29.2,30.32,East,99,0.0,1.0,64,0.00,,---,0.00,VWS V14.00,2013-11-25 21:54:00,
2013-11-25 14:59:00,40.5,28.9,30.31,East,99,0.0,0.0,63,0.00,,---,0.00,VWS V14.00,2013-11-25 21:59:00,
2013-11-25 15:05:00,40.4,28.0,30.32,East,99,0.0,0.0,61,0.00,,---,0.00,VWS V14.00,2013-11-25 22:05:00,
2013-11-25 15:10:00,40.2,27.8,30.32,ESE,110,0.0,0.0,61,0.00,,---,0.00,VWS V14.00,2013-11-25 22:10:00,
2013-11-25 15:15:00,40.1,27.8,30.32,ESE,111,0.0,0.0,61,0.00,,---,0.00,VWS V14.00,2013-11-25 22:15:00,
2013-11-25 15:20:00,40.0,27.6,30.32,ESE,111,0.0,1.0,61,0.00,,---,0.00,VWS V14.00,2013-11-25 22:20:00,
2013-11-25 15:25:00,39.8,27.5,30.32,ESE,111,0.0,0.0,61,0.00,,---,0.00,VWS V14.00,2013-11-25 22:25:00,
2013-11-25 15:30:00,39.8,27.1,30.32,ESE,115,0.0,0.0,60,0.00,,---,0.00,VWS V14.00,2013-11-25 22:30:00,
2013-11-25 15:35:00,39.8,27.1,30.32,ESE,115,0.0,0.0,60,0.00,,---,0.00,VWS V14.00,2013-11-25 22:35:00,
2013-11-25 15:40:00,39.7,27.0,30.32,ESE,115,0.0,0.0,60,0.00,,---,0.00,VWS V14.00,2013-11-25 22:40:00,
2013-11-25 15:46:00,39.6,27.3,30.33,ESE,115,0.0,0.0,61,0.00,,---,0.00,VWS V14.00,2013-11-25 22:46:00,
2013-11-25 15:51:00,39.6,26.9,30.33,ESE,115,0.0,0.0,60,0.00,,---,0.00,VWS V14.00,2013-11-25 22:51:00,
2013-11-25 15:56:00,39.6,26.9,30.33,ESE,115,0.0,0.0,60,0.00,,---,0.00,VWS V14.00,2013-11-25 22:56:00,
2013-11-25 16:01:00,39.6,26.9,30.33,ESE,115,0.0,0.0,60,0.00,,---,0.00,VWS V14.00,2013-11-25 23:01:00,
2013-11-25 16:06:00,39.6,27.3,30.35,ESE,115,0.0,1.0,61,0.00,,---,0.00,VWS V14.00,2013-11-25 23:06:00,
2013-11-25 16:11:00,39.5,27.2,30.35,ESE,115,0.0,0.0,61,0.00,,---,0.00,VWS V14.00,2013-11-25 23:11:00,
2013-11-25 16:16:00,39.5,27.6,30.35,ESE,115,0.0,0.0,62,0.00,,---,0.00,VWS V14.00,2013-11-25 23:16:00,
2013-11-25 16:21:00,39.4,27.5,30.35,ESE,115,0.0,0.0,62,0.00,,---,0.00,VWS V14.00,2013-11-25 23:21:00,
2013-11-25 16:26:00,39.2,27.3,30.35,ESE,115,0.0,0.0,62,0.00,,---,0.00,VWS V14.00,2013-11-25 23:26:00,
2013-11-25 16:31:00,39.1,27.2,30.35,ESE,115,0.0,0.0,62,0.00,,---,0.00,VWS V14.00,2013-11-25 23:31:00,
2013-11-25 16:36:00,39.0,27.1,30.35,ESE,115,0.0,0.0,62,0.00,,---,0.00,VWS V14.00,2013-11-25 23:36:00,
2013-11-25 16:41:00,38.9,27.0,30.35,ESE,115,0.0,0.0,62,0.00,,---,0.00,VWS V14.00,2013-11-25 23:41:00,
2013-11-25 16:46:00,38.9,27.0,30.35,ESE,115,0.0,0.0,62,0.00,,---,0.00,VWS V14.00,2013-11-25 23:46:00,
2013-11-25 16:51:00,38.8,26.9,30.35,ESE,115,0.0,0.0,62,0.00,,---,0.00,VWS V14.00,2013-11-25 23:51:00,
2013-11-25 16:56:00,38.7,26.8,30.35,ESE,115,0.0,0.0,62,0.00,,---,0.00,VWS V14.00,2013-11-25 23:56:00,
2013-11-25 17:01:00,38.5,27.0,30.35,ESE,115,0.0,0.0,63,0.00,,---,0.00,VWS V14.00,2013-11-26 00:01:00,
2013-11-25 17:06:00,38.4,26.9,30.37,ESE,115,0.0,0.0,63,0.00,,---,0.00,VWS V14.00,2013-11-26 00:06:00,
2013-11-25 17:11:00,38.2,26.7,30.36,ESE,115,0.0,0.0,63,0.00,,---,0.00,VWS V14.00,2013-11-26 00:11:00,
2013-11-25 17:16:00,38.0,26.5,30.37,ESE,115,0.0,0.0,63,0.00,,---,0.00,VWS V14.00,2013-11-26 00:16:00,
2013-11-25 17:21:00,37.8,26.4,30.37,ESE,115,0.0,0.0,63,0.00,,---,0.00,VWS V14.00,2013-11-26 00:21:00,
2013-11-25 17:26:00,37.5,26.1,30.37,ESE,115,0.0,0.0,63,0.00,,---,0.00,VWS V14.00,2013-11-26 00:26:00,
2013-11-25 17:32:00,37.3,25.9,30.38,ESE,115,0.0,0.0,63,0.00,,---,0.00,VWS V14.00,2013-11-26 00:32:00,
2013-11-25 17:37:00,37.0,25.6,30.39,ESE,115,0.0,0.0,63,0.00,,---,0.00,VWS V14.00,2013-11-26 00:37:00,
2013-11-25 17:42:00,36.8,25.8,30.39,ESE,115,0.0,0.0,64,0.00,,---,0.00,VWS V14.00,2013-11-26 00:42:00,
2013-11-25 17:47:00,36.5,25.5,30.39,ESE,115,0.0,0.0,64,0.00,,---,0.00,VWS V14.00,2013-11-26 00:47:00,
2013-11-25 17:52:00,36.2,25.2,30.39,ESE,115,0.0,0.0,64,0.00,,---,0.00,VWS V14.00,2013-11-26 00:52:00,
2013-11-25 17:57:00,36.0,25.0,30.39,ESE,115,0.0,0.0,64,0.00,,---,0.00,VWS V14.00,2013-11-26 00:57:00,
2013-11-25 18:02:00,35.8,24.8,30.39,ESE,115,0.0,0.0,64,0.00,,---,0.00,VWS V14.00,2013-11-26 01:02:00,
2013-11-25 18:08:00,35.5,24.5,30.39,ESE,115,0.0,0.0,64,0.00,,---,0.00,VWS V14.00,2013-11-26 01:08:00,
2013-11-25 18:13:00,35.2,24.3,30.41,ESE,115,0.0,0.0,64,0.00,,---,0.00,VWS V14.00,2013-11-26 01:13:00,
2013-11-25 18:18:00,35.0,24.4,30.41,ESE,115,0.0,0.0,65,0.00,,---,0.00,VWS V14.00,2013-11-26 01:18:00,
2013-11-25 18:23:00,34.8,24.2,30.41,ESE,115,0.0,0.0,65,0.00,,---,0.00,VWS V14.00,2013-11-26 01:23:00,
2013-11-25 18:28:00,34.5,24.0,30.41,ESE,115,0.0,0.0,65,0.00,,---,0.00,VWS V14.00,2013-11-26 01:28:00,
2013-11-25 18:33:00,34.4,24.2,30.41,ESE,115,0.0,0.0,66,0.00,,---,0.00,VWS V14.00,2013-11-26 01:33:00,
2013-11-25 18:38:00,34.3,24.1,30.41,ESE,115,0.0,0.0,66,0.00,,---,0.00,VWS V14.00,2013-11-26 01:38:00,
2013-11-25 18:43:00,34.0,24.2,30.41,ESE,115,0.0,0.0,67,0.00,,---,0.00,VWS V14.00,2013-11-26 01:43:00,
2013-11-25 18:48:00,33.8,24.0,30.42,ESE,115,0.0,0.0,67,0.00,,---,0.00,VWS V14.00,2013-11-26 01:48:00,
2013-11-25 18:53:00,33.6,24.2,30.42,ESE,115,0.0,0.0,68,0.00,,---,0.00,VWS V14.00,2013-11-26 01:53:00,
2013-11-25 18:58:00,33.4,24.3,30.42,ESE,115,0.0,0.0,69,0.00,,---,0.00,VWS V14.00,2013-11-26 01:58:00,
2013-11-25 19:03:00,33.3,24.6,30.42,ESE,115,0.0,0.0,70,0.00,,---,0.00,VWS V14.00,2013-11-26 02:03:00,
2013-11-25 19:08:00,33.2,24.5,30.42,ESE,115,0.0,0.0,70,0.00,,---,0.00,VWS V14.00,2013-11-26 02:08:00,
2013-11-25 19:13:00,33.0,24.3,30.42,ESE,115,0.0,0.0,70,0.00,,---,0.00,VWS V14.00,2013-11-26 02:13:00,
2013-11-25 19:18:00,32.9,24.2,30.42,ESE,115,0.0,0.0,70,0.00,,---,0.00,VWS V14.00,2013-11-26 02:18:00,
2013-11-25 19:23:00,32.8,24.1,30.42,ESE,115,0.0,0.0,70,0.00,,---,0.00,VWS V14.00,2013-11-26 02:23:00,
2013-11-25 19:28:00,32.7,24.4,30.42,ESE,115,0.0,0.0,71,0.00,,---,0.00,VWS V14.00,2013-11-26 02:28:00,
2013-11-25 19:33:00,32.9,24.9,30.42,ESE,115,0.0,0.0,72,0.00,,---,0.00,VWS V14.00,2013-11-26 02:33:00,
2013-11-25 19:38:00,32.9,25.2,30.42,ESE,115,0.0,0.0,73,0.00,,---,0.00,VWS V14.00,2013-11-26 02:38:00,
2013-11-25 19:43:00,33.0,25.6,30.42,ESE,115,0.0,0.0,74,0.00,,---,0.00,VWS V14.00,2013-11-26 02:43:00,
2013-11-25 19:48:00,33.0,25.6,30.42,ESE,115,0.0,0.0,74,0.00,,---,0.00,VWS V14.00,2013-11-26 02:48:00,
2013-11-25 19:53:00,33.0,25.6,30.42,ESE,115,0.0,0.0,74,0.00,,---,0.00,VWS V14.00,2013-11-26 02:53:00,
2013-11-25 19:58:00,33.0,25.6,30.42,ESE,115,0.0,0.0,74,0.00,,---,0.00,VWS V14.00,2013-11-26 02:58:00,
2013-11-25 20:03:00,32.9,25.5,30.42,ESE,115,0.0,0.0,74,0.00,,---,0.00,VWS V14.00,2013-11-26 03:03:00,
2013-11-25 20:08:00,32.9,25.9,30.42,ESE,115,0.0,0.0,75,0.00,,---,0.00,VWS V14.00,2013-11-26 03:08:00,
2013-11-25 20:13:00,32.8,25.8,30.42,ESE,115,0.0,0.0,75,0.00,,---,0.00,VWS V14.00,2013-11-26 03:13:00,
2013-11-25 20:18:00,32.8,25.8,30.42,ESE,115,0.0,0.0,75,0.00,,---,0.00,VWS V14.00,2013-11-26 03:18:00,
2013-11-25 20:23:00,32.8,25.8,30.42,ESE,115,0.0,0.0,75,0.00,,---,0.00,VWS V14.00,2013-11-26 03:23:00,
2013-11-25 20:28:00,32.8,25.8,30.43,ESE,115,0.0,0.0,75,0.00,,---,0.00,VWS V14.00,2013-11-26 03:28:00,
2013-11-25 20:33:00,32.7,25.7,30.43,ESE,115,0.0,0.0,75,0.00,,---,0.00,VWS V14.00,2013-11-26 03:33:00,
2013-11-25 20:38:00,32.6,25.6,30.43,ESE,115,0.0,0.0,75,0.00,,---,0.00,VWS V14.00,2013-11-26 03:38:00,
2013-11-25 20:43:00,32.5,25.5,30.43,ESE,115,0.0,0.0,75,0.00,,---,0.00,VWS V14.00,2013-11-26 03:43:00,
2013-11-25 20:48:00,32.4,25.4,30.44,ESE,115,0.0,0.0,75,0.00,,---,0.00,VWS V14.00,2013-11-26 03:48:00,
2013-11-25 20:53:00,32.3,25.3,30.44,ESE,115,0.0,0.0,75,0.00,,---,0.00,VWS V14.00,2013-11-26 03:53:00,
2013-11-25 20:58:00,32.2,25.2,30.44,ESE,115,0.0,0.0,75,0.00,,---,0.00,VWS V14.00,2013-11-26 03:58:00,
2013-11-25 21:03:00,32.0,25.0,30.44,ESE,115,0.0,0.0,75,0.00,,---,0.00,VWS V14.00,2013-11-26 04:03:00,
2013-11-25 21:08:00,31.9,24.9,30.44,ESE,115,0.0,0.0,75,0.00,,---,0.00,VWS V14.00,2013-11-26 04:08:00,
2013-11-25 21:13:00,31.7,24.7,30.45,ESE,115,0.0,0.0,75,0.00,,---,0.00,VWS V14.00,2013-11-26 04:13:00,
2013-11-25 21:18:00,31.5,24.5,30.45,ESE,115,0.0,0.0,75,0.00,,---,0.00,VWS V14.00,2013-11-26 04:18:00,
2013-11-25 21:23:00,31.4,24.4,30.46,ESE,115,0.0,0.0,75,0.00,,---,0.00,VWS V14.00,2013-11-26 04:23:00,
2013-11-25 21:28:00,31.2,24.2,30.47,ESE,115,0.0,0.0,75,0.00,,---,0.00,VWS V14.00,2013-11-26 04:28:00,
2013-11-25 21:33:00,31.0,24.0,30.47,ESE,115,0.0,0.0,75,0.00,,---,0.00,VWS V14.00,2013-11-26 04:33:00,
2013-11-25 21:38:00,30.9,23.9,30.47,ESE,115,0.0,0.0,75,0.00,,---,0.00,VWS V14.00,2013-11-26 04:38:00,
2013-11-25 21:43:00,30.7,23.7,30.47,ESE,115,0.0,0.0,75,0.00,,---,0.00,VWS V14.00,2013-11-26 04:43:00,
2013-11-25 21:48:00,30.6,23.6,30.47,ESE,115,0.0,0.0,75,0.00,,---,0.00,VWS V14.00,2013-11-26 04:48:00,
2013-11-25 21:53:00,30.5,23.5,30.47,ESE,115,0.0,0.0,75,0.00,,---,0.00,VWS V14.00,2013-11-26 04:53:00,
2013-11-25 21:58:00,30.3,23.3,30.47,ESE,115,0.0,0.0,75,0.00,,---,0.00,VWS V14.00,2013-11-26 04:58:00,
2013-11-25 22:01:00,30.2,23.6,30.47,ESE,115,0.0,0.0,76,0.00,,---,0.00,VWS V14.00,2013-11-26 05:01:00,
2013-11-25 22:03:00,30.2,23.6,30.47,ESE,115,0.0,0.0,76,0.00,,---,0.00,VWS V14.00,2013-11-26 05:03:00,
2013-11-25 22:06:00,30.1,23.5,30.47,ESE,115,0.0,0.0,76,0.00,,---,0.00,VWS V14.00,2013-11-26 05:06:00,
2013-11-25 22:08:00,30.1,23.5,30.47,ESE,115,0.0,0.0,76,0.00,,---,0.00,VWS V14.00,2013-11-26 05:08:00,
2013-11-25 22:09:00,30.0,23.4,30.47,ESE,115,0.0,0.0,76,0.00,,---,0.00,VWS V14.00,2013-11-26 05:09:00,
2013-11-25 22:10:00,30.0,23.4,30.47,ESE,115,0.0,0.0,76,0.00,,---,0.00,VWS V14.00,2013-11-26 05:10:00,
2013-11-25 22:15:00,29.8,23.2,30.47,ESE,115,0.0,0.0,76,0.00,,---,0.00,VWS V14.00,2013-11-26 05:15:00,
2013-11-25 22:20:00,29.7,23.1,30.47,ESE,115,0.0,0.0,76,0.00,,---,0.00,VWS V14.00,2013-11-26 05:20:00,
2013-11-25 22:25:00,29.6,23.0,30.47,ESE,115,0.0,0.0,76,0.00,,---,0.00,VWS V14.00,2013-11-26 05:25:00,
2013-11-25 22:30:00,29.4,22.8,30.48,ESE,115,0.0,0.0,76,0.00,,---,0.00,VWS V14.00,2013-11-26 05:30:00,
2013-11-25 22:35:00,29.3,22.7,30.48,ESE,115,0.0,0.0,76,0.00,,---,0.00,VWS V14.00,2013-11-26 05:35:00,
2013-11-25 22:40:00,29.1,22.5,30.48,ESE,115,0.0,0.0,76,0.00,,---,0.00,VWS V14.00,2013-11-26 05:40:00,
2013-11-25 22:45:00,29.0,22.4,30.48,ESE,115,0.0,0.0,76,0.00,,---,0.00,VWS V14.00,2013-11-26 05:45:00,
2013-11-25 22:50:00,28.8,22.2,30.48,ESE,115,0.0,0.0,76,0.00,,---,0.00,VWS V14.00,2013-11-26 05:50:00,
2013-11-25 22:55:00,28.7,22.1,30.48,ESE,115,0.0,0.0,76,0.00,,---,0.00,VWS V14.00,2013-11-26 05:55:00,